Preview of NWS' New Version of Forecast
This preview is not operational and should not be used for support decisions.

Regional Weather Roundup (RWR)

Issued by Gray - Portland, ME (GYX)

                            
000
ASUS41 KGYX 172305
RWRGYX
WEATHER ROUNDUP FOR MAINE AND NEW HAMPSHIRE
NATIONAL WEATHER SERVICE GRAY ME
600 PM EST SUN FEB 17 2019

MEZ002-005-006-010-012-015-018-020-021-024-026-027-029-180000-
MAINE
  
CITY           SKY/WX    TMP DP  RH WIND       PRES   REMARKS
PORTLAND       MOCLDY    28  18  66 S7        30.07R                  
SANFORD        FAIR      26  15  63 CALM      30.06R                  
BAR HARBOR     FAIR      25   6  44 CALM      30.07F                  
WISCASSET      FAIR      26  14  60 CALM      30.08R                  
ROCKLAND       FAIR      25  15  66 CALM      30.07S                  
FRYEBURG       FAIR      25   6  44 CALM      30.03R                  
LEWISTONAUBURN FAIR      28   6  39 NE6       30.05R                  
AUGUSTA        FAIR      27   4  37 CALM      30.05R                  
WATERVILLE     FAIR      25   4  40 CALM      30.02S                  
BANGOR         CLOUDY    23   7  50 N8        30.07R                  
GREENVILLE       N/A     14  -5  42 NW10      29.97R WCI   1          
MILLINOCKET    FAIR      19   2  47 W7        30.06R                  
HOULTON        NOT AVBL                                               
PRESQUE ISLE   FAIR      11  -1  58 NW5       30.03R                  
FRENCHVILLE    FAIR      10  -4  53 NW8       29.98R                  
CARIBOU        FAIR      10  -3  55 NW7       30.01R                  
$$

NHZ002-005-008-009-011-012-014-180000-
NEW HAMPSHIRE
  
CITY           SKY/WX    TMP DP  RH WIND       PRES   REMARKS
PORTSMOUTH     PTCLDY    27  12  52 SE5       30.05R                  
ROCHESTER      FAIR      26  14  60 S3        30.04R                  
NASHUA         FAIR      28  16  60 CALM      30.04S                  
MANCHESTER     MOCLDY    32   3  29 E3        30.03R                  
CONCORD        FAIR      27   5  39 CALM      30.03R                  
LACONIA        FAIR      27   9  46 CALM      30.02S                  
PLYMOUTH       FAIR      26   3  38 W3        30.01F                  
BERLIN         FAIR      19   3  49 N3        30.01R                  
WHITEFIELD     FAIR      21   5  50 CALM      30.01S                  
JAFFREY        FAIR      27  10  49 CALM      29.99S                  
KEENE          FAIR      28  12  51 CALM      30.02R                  
LEBANON        FAIR      26   5  40 N5        30.02S                  
MT WASHINGTON  MOCLDY     9 -20  26 W37         N/A  WCI -16          
$$

VTZ005-007-008-180000-
VERMONT
  
CITY           SKY/WX    TMP DP  RH WIND       PRES   REMARKS
ST JOHNSBURY     N/A     20   3  48 MISG      30.03F                  
MONTPELIER     FAIR      19   6  57 CALM      30.03F                  
BURLINGTON     FAIR      16   3  56 NW6       30.08F                  
$$

MAZ007-012-024-CTZ003-RIZ002-NYZ038-NYZ072-180000-
SOUTHERN NEW ENGLAND AND NY
  
CITY           SKY/WX    TMP DP  RH WIND       PRES   REMARKS
BOSTON         FAIR      30  16  56 E10       30.07R                  
WORCESTER      FAIR      31   8  38 CALM      29.99R                  
NANTUCKET      FAIR      28  20  71 S3        30.08R                  
PROVIDENCE     FAIR      31  16  54 S8        30.06R                  
HARTFORD       FAIR      32  14  47 SE6       30.03R                  
ALBANY         MOCLDY    28   7  41 N3        30.05S                  
NEW YORK CITY  MOCLDY    34  18  52 S10       30.05S                  
$$

ANZ081-ANZ082-ANZ150-NHZ014-MEZ023>029-180000-
COASTAL MARINE OBSERVATIONS
  
STATION/POSITION TIME  TEMP    WIND        PRES    WAVE
                       AIR SEA DIR/SP/G            HT/PER
                 (UTC) (F)     (DEG/KT/KT) (MB)    (FT/S)
MOUNT DESERT ROC 2300   28     300/  9/ 12 1018.1F
MATINICUS ROCK   2200   27     270/  6/  8 1017.7F
ISLE OF SHOALS   2200   29     140/  5/  6 1017.5F
JEFFREYS LEDGE   2238      40                N/A     2/ 8
CASHES LEDGE BUO 2250   26 40              1018.8S   2/ 8
$$

.............KEY..............
   WCI - WIND CHILL
   TC  - TEMPERATURE IN CELSIUS
   VSB - VISIBILITY IN MILES
   HX  - HEAT INDEX
   FAIR- INDICATES FEW OR NO CLOUDS BELOW 12,000 FT, WITH NO 
         SIGNIFICANT WEATHER AND/OR OBSTRUCTIONS TO VISIBILITY.